period_start,C,m1,H,J0,J1,J2,J3,J4,J5,JA,JB,JC,JD,JJ,JK,JN,#
2018-07-29 00:00:23,0.00,0.34,0.00,27.82,31.05,33.46,13.58,44.79,1010.76,2011.99,3296.99,2965.00,3400.94,600.27,583.30,15.52,0000 0000 0000 0000 000000
2018-07-29 00:05:25,0.01,0.34,0.00,27.85,31.06,33.48,13.52,44.78,1010.77,2011.98,3296.74,2964.96,3400.51,599.84,583.04,15.57,0000 0000 0000 0000 000000
2018-07-29 00:10:26,0.05,0.34,0.00,27.88,31.08,33.49,13.58,44.96,1010.78,2011.97,3295.92,2964.21,3399.44,599.74,582.75,15.62,0000 0000 0000 0000 000000
2018-07-29 00:15:27,0.01,0.35,0.00,27.91,31.10,33.52,13.51,45.02,1010.77,2011.94,3295.20,2963.82,3399.01,599.87,582.81,15.67,0000 0000 0000 0000 000000
2018-07-29 00:20:28,-0.01,0.35,0.00,27.94,31.12,33.54,13.51,44.77,1010.77,2011.76,3295.01,2963.13,3398.96,600.26,583.09,15.72,0000 0000 0000 0000 000000
2018-07-29 00:25:29,-0.00,0.35,0.00,27.96,31.14,33.56,13.54,44.75,1010.77,2011.53,3294.93,2963.01,3398.60,600.12,583.02,15.77,0000 0000 0000 0000 000000
2018-07-29 00:30:31,-0.01,0.34,0.00,28.00,31.16,33.58,13.55,44.73,1010.77,2011.12,3294.36,2962.99,3398.05,600.10,582.93,15.82,0000 0000 0000 0000 000000
2018-07-29 00:35:32,0.01,0.34,0.00,28.01,31.18,33.60,13.50,44.72,1010.76,2011.03,3294.02,2962.59,3397.95,599.54,582.07,15.87,0000 0000 0000 0000 000000
2018-07-29 00:40:33,0.01,0.35,0.00,28.04,31.20,33.61,13.57,44.80,1010.76,2011.01,3293.99,2962.07,3397.53,599.91,582.54,15.92,0000 0000 0000 0000 000000
2018-07-29 00:45:34,0.06,0.35,0.00,28.06,31.22,33.64,13.60,44.81,1010.76,2011.00,3293.25,2961.34,3396.38,599.88,582.51,15.97,0000 0000 0000 0000 000000
2018-07-29 00:50:35,0.01,0.35,0.00,28.09,31.24,33.66,13.59,44.76,1010.76,2011.00,3292.36,2960.99,3395.97,600.06,582.66,16.02,0000 0000 0000 0000 000000
2018-07-29 00:55:36,0.01,0.35,0.00,28.11,31.26,33.68,13.53,44.71,1010.76,2011.00,3292.02,2960.94,3395.67,599.91,582.50,16.07,0000 0000 0000 0000 000000
2018-07-29 01:00:37,0.14,0.35,0.00,28.14,31.28,33.70,13.46,44.67,1010.76,2010.97,3290.70,2959.22,3393.90,599.57,582.12,16.13,0000 0000 0000 0000 000000
2018-07-29 01:05:38,0.03,0.36,0.00,28.16,31.30,33.72,13.58,44.66,1010.76,2010.87,3289.25,2958.01,3392.32,600.38,582.77,16.18,0000 0000 0000 0000 000000
2018-07-29 01:10:40,-0.02,0.36,0.00,28.19,31.33,33.75,13.56,44.73,1010.74,2010.67,3289.01,2957.98,3392.01,600.03,582.45,16.23,0000 0000 0000 0000 000000
2018-07-29 01:15:41,-0.02,0.36,0.00,28.22,31.35,33.77,13.53,44.70,1010.72,2010.41,3288.99,2957.69,3391.99,600.00,582.33,16.28,0000 0000 0000 0000 000000
2018-07-29 01:20:42,0.01,0.36,0.00,28.25,31.37,33.79,13.57,44.74,1010.73,2010.10,3288.85,2957.15,3391.85,600.35,582.56,16.33,0000 0000 0000 0000 000000
2018-07-29 01:25:44,0.01,0.36,0.00,28.28,31.39,33.82,13.55,44.77,1010.65,2010.03,3288.32,2957.01,3391.27,599.96,582.05,16.38,0000 0000 0000 0000 000000
2018-07-29 01:30:45,0.00,0.36,0.00,28.30,31.41,33.84,13.55,44.71,1010.58,2010.00,3288.01,2957.00,3391.00,600.15,582.11,16.43,0000 0000 0000 0000 000000
2018-07-29 01:35:46,0.00,0.36,0.00,28.33,31.43,33.87,13.59,44.78,1010.41,2010.00,3288.00,2956.91,3391.00,599.96,581.85,16.48,0000 0000 0000 0000 000000
2018-07-29 01:40:47,0.01,0.36,0.00,28.36,31.46,33.89,13.56,44.73,1010.34,2010.00,3287.89,2956.34,3390.93,600.40,582.27,16.53,0000 0000 0000 0000 000000
2018-07-29 01:45:49,0.02,0.36,0.00,28.37,31.48,33.92,13.48,44.69,1010.40,2009.99,3287.28,2956.03,3390.29,599.74,581.57,16.58,0000 0000 0000 0000 000000
2018-07-29 01:50:50,-0.00,0.36,0.00,28.41,31.51,33.93,13.53,44.60,1010.39,2009.94,3287.02,2956.00,3390.04,600.14,582.01,16.63,0000 0000 0000 0000 000000
2018-07-29 01:55:51,-0.02,0.36,0.00,28.43,31.53,33.96,13.56,44.74,1010.37,2009.77,3286.99,2955.98,3390.00,600.44,582.22,16.68,0000 0000 0000 0000 000000
2018-07-29 02:00:52,-0.01,0.36,0.00,28.46,31.56,33.99,13.56,44.75,1010.37,2009.39,3286.72,2955.77,3389.75,600.32,581.91,16.73,0000 0000 0000 0000 000000
2018-07-29 02:05:53,0.01,0.36,0.00,28.49,31.58,34.01,13.52,44.74,1010.31,2009.10,3286.03,2955.07,3389.05,600.00,581.68,16.78,0000 0000 0000 0000 000000
2018-07-29 02:10:55,0.03,0.36,0.00,28.52,31.61,34.03,13.52,44.67,1010.29,2009.04,3285.38,2954.79,3388.62,600.07,581.45,16.83,0000 0000 0000 0000 000000
2018-07-29 02:15:56,0.04,0.36,0.00,28.55,31.63,34.05,13.53,44.69,1010.29,2009.00,3284.22,2954.03,3387.91,600.14,581.62,16.88,0000 0000 0000 0000 000000
2018-07-29 02:20:57,0.04,0.36,0.00,28.58,31.66,34.08,13.52,44.67,1010.28,2009.00,3283.32,2953.53,3387.09,600.32,581.57,16.93,0000 0000 0000 0000 000000
2018-07-29 02:25:59,0.02,0.37,0.00,28.61,31.68,34.11,13.51,44.69,1010.27,2009.00,3282.62,2953.01,3386.62,599.97,581.27,16.98,0000 0000 0000 0000 000000
2018-07-29 02:31:00,0.02,0.37,0.00,28.64,31.70,34.13,13.49,44.73,1010.27,2008.99,3282.02,2952.73,3386.02,599.78,580.98,17.03,0000 0000 0000 0000 000000
2018-07-29 02:36:01,0.07,0.37,0.00,28.67,31.73,34.15,13.50,44.66,1010.27,2008.89,3281.06,2951.31,3384.84,600.31,581.25,17.08,0000 0000 0000 0000 000000
2018-07-29 02:41:02,0.01,0.37,0.00,28.70,31.76,34.18,13.47,44.60,1010.27,2008.41,3280.10,2950.25,3383.37,600.23,581.28,17.13,0000 0000 0000 0000 000000
2018-07-29 02:46:04,-0.00,0.37,0.00,28.73,31.78,34.20,13.49,44.57,1010.26,2008.09,3279.49,2950.00,3383.00,600.04,581.04,17.18,0000 0000 0000 0000 000000
2018-07-29 02:51:05,0.00,0.37,0.00,28.76,31.81,34.23,13.50,44.71,1010.23,2008.03,3279.03,2949.96,3382.97,600.09,581.12,17.23,0000 0000 0000 0000 000000
2018-07-29 02:56:06,0.02,0.37,0.00,28.79,31.83,34.25,13.47,44.54,1010.13,2008.00,3279.00,2949.60,3382.43,599.72,580.74,17.28,0000 0000 0000 0000 000000
2018-07-29 03:01:07,0.01,0.37,0.00,28.81,31.86,34.28,13.57,44.68,1010.11,2008.00,3278.86,2949.08,3382.02,600.12,580.97,17.33,0000 0000 0000 0000 000000
2018-07-29 03:06:09,0.01,0.37,0.00,28.85,31.89,34.31,13.53,44.72,1010.12,2007.99,3278.20,2949.00,3381.96,599.98,580.70,17.38,0000 0000 0000 0000 000000
2018-07-29 03:11:10,0.01,0.38,0.00,28.88,31.91,34.34,13.50,44.52,1009.98,2007.97,3278.00,2948.99,3381.51,600.29,580.98,17.43,0000 0000 0000 0000 000000
2018-07-29 03:16:11,0.01,0.38,0.00,28.91,31.94,34.37,13.49,44.57,1009.93,2007.89,3277.96,2948.62,3381.02,600.14,580.86,17.48,0000 0000 0000 0000 000000
2018-07-29 03:21:13,-0.02,0.38,0.00,28.95,31.96,34.39,13.44,44.51,1009.84,2007.45,3277.42,2948.10,3380.98,599.60,580.02,17.53,0000 0000 0000 0000 000000
2018-07-29 03:26:14,-0.01,0.37,0.00,28.96,31.99,34.41,13.50,44.65,1009.86,2007.08,3277.01,2947.99,3380.56,599.93,580.17,17.58,0000 0000 0000 0000 000000
2018-07-29 03:31:15,0.04,0.38,0.00,29.00,32.01,34.44,13.48,44.44,1010.01,2007.01,3276.55,2947.37,3379.95,600.24,580.63,17.63,0000 0000 0000 0000 000000
2018-07-29 03:36:17,0.01,0.38,0.00,29.02,32.04,34.47,13.50,44.48,1010.06,2007.00,3276.00,2947.00,3379.28,600.02,580.41,17.68,0000 0000 0000 0000 000000
2018-07-29 03:41:18,0.00,0.38,0.00,29.05,32.07,34.49,13.48,44.53,1010.04,2007.00,3275.92,2946.98,3379.01,600.02,580.33,17.73,0000 0000 0000 0000 000000
2018-07-29 03:46:19,0.02,0.38,0.00,29.07,32.10,34.52,13.48,44.73,1009.98,2007.00,3275.39,2946.77,3379.00,599.89,580.18,17.78,0000 0000 0000 0000 000000
2018-07-29 03:51:20,0.02,0.38,0.00,29.09,32.12,34.55,13.45,44.53,1010.03,2006.98,3275.00,2946.11,3378.78,599.93,580.26,17.83,0000 0000 0000 0000 000000
2018-07-29 03:56:21,0.12,0.39,0.00,29.12,32.15,34.57,13.52,44.61,1010.07,2006.89,3273.31,2944.31,3376.35,599.98,580.20,17.88,0000 0000 0000 0000 000000
2018-07-29 04:01:22,-0.00,0.39,0.00,29.15,32.18,34.60,13.46,44.52,1009.85,2006.75,3272.82,2943.98,3375.70,599.81,579.84,17.93,0000 0000 0000 0000 000000
2018-07-29 04:06:24,-0.01,0.38,0.00,29.18,32.20,34.63,13.41,44.62,1009.79,2006.19,3272.07,2943.46,3375.04,599.63,579.67,17.98,0000 0000 0000 0000 000000
2018-07-29 04:11:25,0.00,0.38,0.00,29.21,32.23,34.65,13.50,44.48,1009.79,2006.05,3272.00,2943.04,3374.97,600.26,580.22,18.03,0000 0000 0000 0000 000000
2018-07-29 04:16:26,0.02,0.39,0.00,29.23,32.26,34.67,13.50,44.41,1009.78,2006.00,3271.56,2942.99,3374.33,600.09,579.85,18.08,0000 0000 0000 0000 000000
2018-07-29 04:21:28,0.02,0.39,0.00,29.26,32.28,34.70,13.52,44.50,1009.78,2006.00,3271.04,2942.73,3374.01,600.19,579.98,18.13,0000 0000 0000 0000 000000
2018-07-29 04:26:29,0.01,0.39,0.00,29.27,32.31,34.72,13.44,44.59,1009.78,2006.00,3270.95,2942.09,3373.92,599.95,579.82,18.18,0000 0000 0000 0000 000000
2018-07-29 04:31:30,0.02,0.39,0.00,29.30,32.33,34.75,13.51,44.47,1009.78,2005.98,3270.37,2942.00,3373.20,599.98,579.73,18.23,0000 0000 0000 0000 000000
2018-07-29 04:36:31,-0.00,0.39,0.00,29.32,32.36,34.78,13.50,44.59,1009.76,2005.92,3270.01,2941.88,3372.99,600.16,579.78,18.28,0000 0000 0000 0000 000000
2018-07-29 04:41:33,0.01,0.39,0.00,29.34,32.39,34.81,13.47,44.45,1009.70,2005.77,3269.84,2941.39,3372.82,600.09,579.72,18.33,0000 0000 0000 0000 000000
2018-07-29 04:46:34,-0.01,0.39,0.00,29.37,32.41,34.83,13.50,44.59,1009.64,2005.36,3269.29,2941.02,3372.13,600.29,579.62,18.38,0000 0000 0000 0000 000000
2018-07-29 04:51:36,-0.02,0.39,0.00,29.39,32.44,34.85,13.40,44.55,1009.58,2005.09,3269.00,2941.00,3372.00,599.91,579.45,18.43,0000 0000 0000 0000 000000
2018-07-29 04:56:37,0.01,0.39,0.00,29.41,32.46,34.88,13.49,44.46,1009.51,2005.00,3268.91,2940.84,3371.84,600.53,579.87,18.48,0000 0000 0000 0000 000000
2018-07-29 05:01:38,0.04,0.39,0.00,29.43,32.49,34.91,13.45,44.28,1009.62,2005.00,3268.17,2940.16,3371.17,599.71,579.05,18.53,0000 0000 0000 0000 000000
2018-07-29 05:06:40,0.00,0.39,0.00,29.46,32.51,34.93,13.49,44.51,1009.71,2005.00,3268.00,2940.00,3370.99,600.32,579.69,18.58,0000 0000 0000 0000 000000
2018-07-29 05:11:41,0.05,0.39,0.00,29.48,32.54,34.95,13.46,44.70,1009.70,2004.99,3267.48,2939.55,3370.39,600.19,579.31,18.63,0000 0000 0000 0000 000000
2018-07-29 05:16:42,0.03,0.39,0.00,29.50,32.57,34.98,13.46,44.51,1009.73,2004.95,3266.56,2938.88,3369.24,599.97,579.23,18.68,0000 0000 0000 0000 000000
2018-07-29 05:21:44,0.01,0.40,0.00,29.52,32.59,35.01,13.43,44.56,1009.66,2004.87,3266.04,2938.33,3369.00,599.62,578.93,18.73,0000 0000 0000 0000 000000
2018-07-29 05:26:45,-0.04,0.39,0.00,29.55,32.62,35.03,13.43,44.50,1009.61,2004.44,3265.99,2938.01,3368.78,599.96,579.30,18.78,0000 0000 0000 0000 000000
2018-07-29 05:31:46,0.00,0.39,0.00,29.57,32.64,35.05,13.55,44.44,1009.68,2004.07,3265.73,2937.99,3368.10,600.28,579.34,18.83,0000 0000 0000 0000 000000
2018-07-29 05:36:47,0.02,0.39,0.00,29.59,32.67,35.07,13.47,44.51,1009.70,2004.00,3265.01,2937.48,3367.92,600.12,579.21,18.88,0000 0000 0000 0000 000000
2018-07-29 05:41:48,0.08,0.40,0.00,29.61,32.69,35.10,13.51,44.48,1009.74,2004.00,3264.06,2936.14,3366.25,600.15,579.22,18.93,0000 0000 0000 0000 000000
2018-07-29 05:46:50,0.01,0.40,0.00,29.64,32.72,35.12,13.41,44.54,1009.73,2004.00,3263.39,2935.98,3365.95,599.78,578.75,18.98,0000 0000 0000 0000 000000
2018-07-29 05:51:51,0.02,0.40,0.00,29.65,32.75,35.15,13.44,44.56,1009.75,2003.99,3263.00,2935.66,3365.48,599.96,578.90,19.03,0000 0000 0000 0000 000000
2018-07-29 05:56:52,0.10,0.40,0.00,29.67,32.77,35.17,13.48,44.52,1009.71,2003.96,3262.20,2934.42,3364.11,600.14,579.02,19.08,0000 0000 0000 0000 000000
2018-07-29 06:01:53,0.02,0.41,0.00,29.69,32.80,35.20,13.50,44.40,1009.74,2003.61,3260.13,2932.65,3362.05,600.05,578.99,19.13,0000 0000 0000 0000 000000
2018-07-29 06:06:55,-0.01,0.41,0.00,29.71,32.82,35.21,13.48,44.52,1009.73,2003.24,3259.99,2932.09,3361.91,600.00,578.98,19.18,0000 0000 0000 0000 000000
2018-07-29 06:11:56,0.00,0.41,0.00,29.74,32.85,35.23,13.46,44.57,1009.70,2003.09,3259.54,2932.00,3361.21,600.15,578.95,19.23,0000 0000 0000 0000 000000
2018-07-29 06:16:57,0.01,0.41,0.00,29.77,32.87,35.26,13.49,44.44,1009.73,2003.02,3259.01,2931.92,3361.00,600.25,578.96,19.28,0000 0000 0000 0000 000000
2018-07-29 06:21:58,0.01,0.41,0.00,29.79,32.90,35.27,13.42,44.55,1009.72,2003.01,3258.97,2931.47,3360.88,600.03,578.78,19.33,0000 0000 0000 0000 000000
2018-07-29 06:27:00,0.02,0.41,0.00,29.81,32.92,35.30,13.49,44.56,1009.68,2003.00,3258.47,2931.02,3360.18,600.09,578.82,19.38,0000 0000 0000 0000 000000
2018-07-29 06:32:01,0.00,0.41,0.00,29.84,32.95,35.33,13.48,44.42,1009.61,2002.99,3257.92,2930.85,3359.85,599.88,578.44,19.44,0000 0000 0000 0000 000000
2018-07-29 06:37:03,0.58,0.43,0.00,29.87,32.97,35.35,13.36,44.50,1009.62,2002.97,3250.42,2922.19,3349.77,600.22,578.73,19.49,0000 0000 0000 0000 000000
2018-07-29 06:42:03,0.05,0.44,0.00,29.89,32.99,35.37,13.39,44.53,1009.69,2002.89,3248.12,2920.01,3347.06,599.85,578.18,19.54,0000 0000 0000 0000 000000
2018-07-29 06:47:05,-0.01,0.44,0.00,29.92,33.01,35.39,13.40,44.46,1009.56,2002.64,3247.99,2919.46,3346.83,599.93,578.23,19.59,0000 0000 0000 0000 000000
2018-07-29 06:52:06,0.00,0.44,0.00,29.96,33.04,35.42,13.45,44.39,1009.38,2002.21,3247.39,2919.01,3346.11,599.63,577.77,19.64,0000 0000 0000 0000 000000
2018-07-29 06:57:08,-0.01,0.44,0.00,29.98,33.06,35.44,13.42,44.26,1009.43,2002.08,3247.01,2918.99,3346.00,599.77,577.97,19.69,0000 0000 0000 0000 000000
2018-07-29 07:02:09,0.01,0.44,0.00,30.01,33.09,35.47,13.43,44.35,1009.56,2002.03,3246.87,2918.75,3345.83,600.07,578.25,19.74,0000 0000 0000 0000 000000
2018-07-29 07:07:10,0.04,0.45,0.00,30.04,33.11,35.49,13.40,44.33,1009.56,2002.01,3246.19,2918.08,3345.12,600.02,578.20,19.79,0000 0000 0000 0000 000000
2018-07-29 07:12:11,0.00,0.45,0.00,30.07,33.13,35.52,13.43,44.33,1009.62,2002.00,3245.99,2917.99,3344.98,599.97,578.08,19.84,0000 0000 0000 0000 000000
2018-07-29 07:17:13,0.02,0.45,0.00,30.10,33.16,35.53,13.43,44.38,1009.68,2002.00,3245.50,2917.80,3344.50,600.30,578.40,19.89,0000 0000 0000 0000 000000
2018-07-29 07:22:14,0.02,0.45,0.00,30.13,33.19,35.56,13.39,44.18,1009.72,2001.99,3245.01,2917.16,3344.02,599.86,577.99,19.94,0000 0000 0000 0000 000000
2018-07-29 07:27:15,0.05,0.45,0.00,30.16,33.21,35.59,13.36,44.36,1009.75,2001.92,3244.32,2916.44,3343.30,599.71,577.81,19.99,0000 0000 0000 0000 000000
2018-07-29 07:32:17,0.15,0.46,0.00,30.20,33.24,35.62,13.48,44.24,1009.73,2001.74,3242.33,2914.43,3340.89,600.13,578.04,20.04,0000 0000 0000 0000 000000
2018-07-29 07:37:18,0.05,0.46,0.00,30.23,33.26,35.64,13.44,44.31,1009.69,2001.25,3239.91,2912.07,3338.08,600.14,577.98,20.09,0000 0000 0000 0000 000000
2018-07-29 07:42:20,0.01,0.46,0.00,30.27,33.29,35.66,13.47,44.34,1009.72,2001.05,3239.14,2911.94,3337.72,600.17,577.95,20.14,0000 0000 0000 0000 000000
2018-07-29 07:47:21,0.02,0.46,0.00,30.31,33.32,35.69,13.42,44.28,1009.72,2001.01,3238.96,2911.30,3337.05,600.37,578.15,20.19,0000 0000 0000 0000 000000
2018-07-29 07:52:22,0.01,0.46,0.00,30.35,33.35,35.71,13.41,44.30,1009.62,2001.00,3238.26,2911.01,3336.93,600.23,577.90,20.24,0000 0000 0000 0000 000000
2018-07-29 07:57:23,0.02,0.46,0.00,30.39,33.37,35.74,13.42,44.27,1009.59,2000.99,3238.00,2910.85,3336.21,599.99,577.54,20.29,0000 0000 0000 0000 000000
2018-07-29 08:02:25,0.02,0.47,0.00,30.43,33.40,35.77,13.34,44.30,1009.64,2000.98,3237.53,2910.16,3335.99,600.02,577.44,20.34,0000 0000 0000 0000 000000
2018-07-29 08:07:26,0.09,0.47,0.00,30.46,33.43,35.80,13.29,44.48,1009.63,2000.77,3236.38,2909.09,3334.60,599.97,577.32,20.39,0000 0000 0000 0000 000000
2018-07-29 08:12:28,0.04,0.47,0.00,30.50,33.46,35.83,13.46,44.35,1009.75,2000.35,3234.43,2907.04,3332.06,599.96,577.34,20.44,0000 0000 0000 0000 000000
2018-07-29 08:17:29,-0.01,0.47,0.00,30.54,33.49,35.86,13.31,44.34,1009.77,2000.11,3234.01,2906.84,3331.86,599.44,576.81,20.49,0000 0000 0000 0000 000000
2018-07-29 08:22:30,0.03,0.47,0.00,30.58,33.52,35.89,13.45,44.33,1009.78,2000.02,3233.59,2906.12,3331.10,600.12,577.37,20.54,0000 0000 0000 0000 000000
2018-07-29 08:27:31,0.21,0.48,0.00,30.61,33.56,35.92,13.34,44.27,1009.77,2000.00,3231.33,2904.10,3328.71,599.86,577.07,20.59,0000 0000 0000 0000 000000
2018-07-29 08:32:33,0.08,0.49,0.00,30.64,33.58,35.95,13.40,44.38,1009.78,2000.00,3229.03,2901.21,3325.59,599.98,577.16,20.64,0000 0000 0000 0000 000000
2018-07-29 08:37:34,0.01,0.49,0.00,30.67,33.61,35.98,13.37,44.42,1009.78,1999.99,3228.53,2900.98,3325.01,599.88,577.04,20.69,0000 0000 0000 0000 000000
2018-07-29 08:42:35,0.02,0.49,0.00,30.70,33.65,36.01,13.31,44.21,1009.78,1999.92,3227.93,2900.62,3324.62,599.84,576.90,20.74,0000 0000 0000 0000 000000
2018-07-29 08:47:36,0.03,0.49,0.00,30.73,33.68,36.05,13.38,44.27,1009.78,1999.55,3226.78,2899.42,3323.26,600.06,577.01,20.79,0000 0000 0000 0000 000000
2018-07-29 08:52:37,0.05,0.50,0.00,30.76,33.71,36.08,13.32,44.22,1009.78,1999.13,3225.38,2898.04,3321.46,599.76,576.70,20.84,0000 0000 0000 0000 000000
2018-07-29 08:57:39,0.23,0.51,0.00,30.79,33.74,36.12,13.35,44.22,1009.80,1999.01,3221.94,2894.35,3317.31,600.08,576.87,20.89,0000 0000 0000 0000 000000
2018-07-29 09:02:40,0.59,0.53,0.00,30.82,33.77,36.14,13.47,44.31,1009.80,1999.00,3212.45,2886.12,3307.74,600.30,577.10,20.94,0000 0000 0000 0000 000000
2018-07-29 09:07:42,0.05,0.54,0.00,30.86,33.80,36.17,13.48,44.37,1009.80,1999.00,3209.61,2883.31,3304.97,600.00,576.73,20.99,0000 0000 0000 0000 000000
2018-07-29 09:12:43,0.68,0.57,0.00,30.89,33.83,36.20,13.38,44.15,1009.81,1998.82,3200.78,2873.72,3293.17,599.84,576.55,21.04,0000 0000 0000 0000 000000
2018-07-29 09:17:44,0.01,0.58,0.00,30.93,33.86,36.23,13.42,44.26,1009.94,1998.50,3199.67,2872.33,3291.96,600.04,576.76,21.09,0000 0000 0000 0000 000000
2018-07-29 09:22:45,0.00,0.58,0.00,30.96,33.89,36.27,13.33,44.01,1009.92,1998.12,3199.03,2872.00,3291.21,599.44,576.19,21.14,0000 0000 0000 0000 000000
2018-07-29 09:27:47,0.01,0.58,0.00,30.99,33.92,36.30,13.36,44.16,1009.88,1998.02,3198.86,2871.66,3290.98,600.54,576.93,21.19,0000 0000 0000 0000 000000
2018-07-29 09:32:48,0.04,0.58,0.00,31.03,33.96,36.33,13.43,44.06,1010.06,1998.00,3198.08,2871.04,3290.27,600.09,576.68,21.24,0000 0000 0000 0000 000000
2018-07-29 09:37:49,0.13,0.58,0.00,31.06,33.99,36.37,13.42,44.13,1010.07,1998.00,3196.18,2869.39,3288.38,600.12,576.66,21.29,0000 0000 0000 0000 000000
2018-07-29 09:42:51,0.27,0.60,0.00,31.11,34.02,36.40,13.39,43.96,1010.15,1997.99,3191.15,2865.17,3283.29,599.90,576.42,21.34,0000 0000 0000 0000 000000
2018-07-29 09:47:52,0.02,0.60,0.00,31.14,34.06,36.43,13.34,44.03,1010.26,1997.81,3190.15,2864.42,3282.77,600.16,576.54,21.39,0000 0000 0000 0000 000000
2018-07-29 09:52:53,0.08,0.60,0.00,31.18,34.09,36.46,13.38,43.99,1010.27,1997.35,3188.94,2862.97,3281.01,600.06,576.45,21.44,0000 0000 0000 0000 000000
2018-07-29 09:57:55,0.00,0.60,0.00,31.21,34.12,36.50,13.40,43.99,1010.27,1997.09,3187.86,2862.00,3279.86,600.26,576.61,21.49,0000 0000 0000 0000 000000
2018-07-29 10:02:55,0.04,0.61,0.00,31.25,34.16,36.54,13.35,44.16,1010.27,1997.02,3187.06,2861.50,3279.12,599.79,575.97,21.54,0000 0000 0000 0000 000000
2018-07-29 10:07:57,0.48,0.62,0.00,31.28,34.19,36.58,13.32,44.15,1010.27,1997.00,3182.43,2856.99,3274.13,599.83,576.09,21.59,0000 0000 0000 0000 000000
2018-07-29 10:12:58,0.09,0.63,0.00,31.31,34.23,36.62,13.35,44.08,1010.27,1997.00,3177.67,2852.76,3269.07,599.77,575.93,21.64,0000 0000 0000 0000 000000
2018-07-29 10:17:59,0.02,0.64,0.00,31.35,34.27,36.66,13.40,43.93,1010.27,1996.99,3177.03,2852.04,3268.63,600.16,576.26,21.69,0000 0000 0000 0000 000000
2018-07-29 10:23:01,0.00,0.64,0.00,31.39,34.31,36.71,13.35,43.93,1010.28,1996.85,3176.68,2851.92,3268.02,600.05,576.04,21.74,0000 0000 0000 0000 000000
2018-07-29 10:28:02,-0.02,0.64,0.00,31.43,34.35,36.77,13.38,43.87,1010.29,1996.34,3175.96,2851.10,3267.54,599.63,575.62,21.79,0000 0000 0000 0000 000000
2018-07-29 10:33:04,0.17,0.64,0.00,31.48,34.39,36.84,13.34,43.83,1010.28,1996.05,3173.33,2848.41,3264.37,600.04,575.93,21.84,0000 0000 0000 0000 000000
2018-07-29 10:38:05,0.06,0.65,0.00,31.52,34.43,36.93,13.47,43.93,1010.28,1996.00,3172.04,2847.10,3263.03,600.32,575.95,21.89,0000 0000 0000 0000 000000
2018-07-29 10:43:06,0.03,0.65,0.00,31.57,34.48,37.00,13.33,43.98,1010.29,1996.00,3171.16,2846.78,3262.15,600.01,575.79,21.94,0000 0000 0000 0000 000000
2018-07-29 10:48:07,0.01,0.65,0.00,31.61,34.52,37.08,13.32,43.98,1010.34,1995.93,3170.99,2846.09,3261.96,599.70,575.36,21.99,0000 0000 0000 0000 000000
2018-07-29 10:53:09,-0.02,0.65,0.00,31.67,34.57,37.16,13.33,43.91,1010.45,1995.46,3170.32,2845.94,3261.18,599.93,575.53,22.04,0000 0000 0000 0000 000000
2018-07-29 10:58:10,-0.00,0.65,0.00,31.73,34.61,37.25,13.34,43.93,1010.48,1995.03,3169.93,2845.18,3260.86,599.82,575.33,22.09,0000 0000 0000 0000 000000
2018-07-29 11:03:11,0.13,0.66,0.00,31.80,34.66,37.32,13.48,43.87,1010.55,1995.00,3168.18,2843.26,3258.34,600.24,575.68,22.14,0000 0000 0000 0000 000000
2018-07-29 11:08:12,0.03,0.66,0.00,31.87,34.71,37.38,13.32,43.90,1010.55,1994.96,3167.24,2842.75,3257.61,599.93,575.19,22.19,0000 0000 0000 0000 000000
2018-07-29 11:13:14,-0.02,0.66,0.00,31.94,34.75,37.44,13.34,43.81,1010.48,1994.65,3166.92,2842.09,3257.03,599.74,574.80,22.24,0000 0000 0000 0000 000000
2018-07-29 11:18:15,-0.01,0.66,0.00,32.01,34.80,37.48,13.38,43.93,1010.59,1994.14,3166.12,2841.98,3256.70,600.16,575.13,22.29,0000 0000 0000 0000 000000
2018-07-29 11:23:16,0.08,0.66,0.00,32.06,34.84,37.52,13.36,43.77,1010.71,1994.02,3165.45,2841.02,3255.52,600.45,575.24,22.34,0000 0000 0000 0000 000000
2018-07-29 11:28:18,0.08,0.66,0.00,32.11,34.89,37.55,13.35,43.78,1010.75,1994.00,3163.93,2839.13,3253.64,600.14,575.05,22.39,0000 0000 0000 0000 000000
2018-07-29 11:33:19,0.01,0.67,0.00,32.14,34.93,37.55,13.31,43.79,1010.73,1993.92,3163.11,2838.96,3253.00,599.81,574.57,22.44,0000 0000 0000 0000 000000
2018-07-29 11:38:20,-0.02,0.66,0.00,32.17,34.96,37.57,13.39,43.89,1010.75,1993.35,3162.87,2838.29,3252.48,599.97,574.73,22.49,0000 0000 0000 0000 000000
2018-07-29 11:43:21,0.00,0.66,0.00,32.20,35.00,37.56,13.42,43.80,1010.75,1993.03,3162.20,2838.00,3252.01,600.27,574.98,22.54,0000 0000 0000 0000 000000
2018-07-29 11:48:22,0.15,0.66,0.00,32.20,35.03,37.55,13.39,43.74,1010.76,1993.00,3160.55,2836.52,3250.05,600.05,574.72,22.59,0000 0000 0000 0000 000000
2018-07-29 11:53:23,0.64,0.70,0.00,32.20,35.06,37.58,13.37,43.80,1010.76,1992.99,3149.69,2826.64,3238.87,599.95,574.69,22.64,0000 0000 0000 0000 000000
2018-07-29 11:58:25,0.04,0.71,0.00,32.18,35.08,37.59,13.31,43.67,1010.76,1992.95,3148.27,2825.53,3237.94,600.09,574.90,22.69,0000 0000 0000 0000 000000
2018-07-29 12:03:26,-0.00,0.71,0.00,32.14,35.10,37.59,13.27,43.69,1010.72,1992.73,3147.87,2825.02,3237.20,599.78,574.69,22.74,0000 0000 0000 0000 000000
2018-07-29 12:08:27,-0.00,0.71,0.00,32.07,35.11,37.60,13.41,43.72,1010.71,1992.22,3147.07,2824.66,3236.68,600.25,575.20,22.79,0000 0000 0000 0000 000000
2018-07-29 12:13:29,0.02,0.71,0.00,31.98,35.12,37.59,13.38,43.85,1010.69,1992.02,3146.61,2824.03,3236.03,599.92,575.09,22.84,0000 0000 0000 0000 000000
2018-07-29 12:18:30,0.01,0.71,0.00,31.89,35.14,37.60,13.34,43.71,1010.43,1992.00,3146.03,2823.91,3235.67,599.86,574.93,22.89,0000 0000 0000 0000 000000
2018-07-29 12:23:31,0.15,0.71,0.00,31.80,35.15,37.59,13.34,43.66,1010.30,1992.00,3144.48,2822.30,3233.83,600.17,575.40,22.95,0000 0000 0000 0000 000000
2018-07-29 12:28:33,0.34,0.73,0.00,31.73,35.15,37.60,13.36,43.67,1010.29,1992.00,3138.96,2817.20,3227.97,600.14,575.50,23.00,0000 0000 0000 0000 000000
2018-07-29 12:33:34,0.15,0.74,0.00,31.67,35.15,37.59,13.32,43.64,1010.29,1992.00,3135.97,2814.44,3224.63,599.63,575.05,23.05,0000 0000 0000 0000 000000
2018-07-29 12:38:35,0.21,0.75,0.00,31.62,35.16,37.58,13.44,43.78,1010.30,1991.99,3132.69,2811.56,3221.34,600.01,575.59,23.10,0000 0000 0000 0000 000000
2018-07-29 12:43:37,0.23,0.76,0.00,31.59,35.15,37.56,13.41,43.89,1010.29,1991.99,3128.77,2808.13,3217.41,600.11,575.70,23.15,0000 0000 0000 0000 000000
2018-07-29 12:48:38,0.25,0.77,0.00,31.56,35.15,37.55,13.43,43.73,1010.29,1991.99,3124.68,2804.45,3213.21,599.79,575.50,23.20,0000 0000 0000 0000 000000
2018-07-29 12:53:39,0.22,0.78,0.00,31.54,35.15,37.57,13.44,43.95,1010.28,1991.97,3120.85,2801.04,3209.25,600.06,575.78,23.25,0000 0000 0000 0000 000000